Regional Weather Roundup
Issued by NWS Boston, MA

Home | Current Version | Previous Version | Text Only | Print | Product List | Glossary On
Versions: 1 2 3 4 5 6 7 8 9 10 11 12 13 14 15 16 17 18 19 20 21 22 23 24 25 26 27
000
ASUS41 KBOX 240210
RWRBOX

REGIONAL WEATHER ROUNDUP
NATIONAL WEATHER SERVICE TAUNTON MA
1000 PM EDT SUN APR 23 2017

NOTE:  "FAIR" INDICATES FEW OR NO CLOUDS BELOW 12,000 FEET WITH NO
SIGNIFICANT WEATHER AND/OR OBSTRUCTIONS TO VISIBILITY.

MAZALL-240300-
EASTERN MASSACHUSETTS

CITY           SKY/WX    TMP DP  RH WIND       PRES   REMARKS
BOSTON         CLOUDY    50  40  68 S12       30.10R
BEVERLY        CLOUDY    52  40  63 S9        30.07R
LAWRENCE       CLOUDY    54  41  61 S9        30.08R
BEDFORD        CLOUDY    50  38  63 S7        30.08R
BLUE HILL        N/A     47  37  68 S18       30.09R
NORWOOD        CLOUDY    49  39  68 S8        30.11R
MARSHFIELD     PTCLDY    48  39  71 SW9G16    30.11S
PLYMOUTH       PTCLDY    45  39  79 SW9       30.13R
TAUNTON        CLOUDY    47  38  71 S7        30.13R
NEW BEDFORD    PTCLDY    45  40  82 SW7       30.14R
$$

MAZALL-240300-
CAPE COD AND THE ISLANDS

CITY           SKY/WX    TMP DP  RH WIND       PRES   REMARKS
FALMOUTH       PTCLDY    45  41  87 MISG      30.15R
HYANNIS        CLOUDY    47  42  83 SW10      30.13R
CHATHAM        CLOUDY    47  43  86 SW10      30.15R
PROVINCETOWN   CLOUDY    46  42  86 SW14      30.13R
NANTUCKET      PTCLDY    45  42  89 SW9       30.15S
MARTHAS VNYRD  PTCLDY    46  42  86 VRB7      30.15R
$$

MAZALL-240300-
CENTRAL AND WESTERN MASSACHUSETTS

CITY           SKY/WX    TMP DP  RH WIND       PRES   REMARKS
WORCESTER      CLOUDY    49  37  63 SW13      30.09R
FITCHBURG      CLOUDY    56  40  55 SE7       30.08R
ORANGE         PTCLDY    54  39  57 S6        30.08R
SPRINGFIELD    CLOUDY    54  39  58 S14       30.09R
WESTFIELD      CLOUDY    54  40  59 S9        30.09R
NORTH ADAMS    PTCLDY    45  38  76 CALM      30.07R
PITTSFIELD     CLOUDY    47  38  71 SE3       30.06R
$$

RIZALL-240300-
RHODE ISLAND

CITY           SKY/WX    TMP DP  RH WIND       PRES   REMARKS
PROVIDENCE     MOCLDY    47  39  74 SW9       30.14R
NEWPORT        CLOUDY    46  41  82 SW6       30.14R
BLOCK ISLAND   CLOUDY    45  42  89 SW9       30.16R
SMITHFIELD     CLOUDY    46  37  71 VRB7      30.12R
WESTERLY       CLOUDY    47  42  83 SW5       30.15R
$$

CTZALL-240300-
CONNECTICUT

CITY           SKY/WX    TMP DP  RH WIND       PRES   REMARKS
BRADLEY INTL   CLOUDY    52  40  63 S9        30.11R
HARTFORD       CLOUDY    50  40  68 S6        30.12R
BRIDGEPORT     PTCLDY    50  41  71 SW7       30.14R
DANBURY        CLOUDY    49  40  71 VRB3      30.12R
GROTON         MOCLDY    45  41  86 SW6       30.14R
NEW HAVEN      CLOUDY    46  41  82 S6        30.14R
CHESTER        FAIR      46  41  81 S5        30.13S
MERIDEN        PTCLDY    50  40  68 S5        30.13R
WILLIMANTIC    CLOUDY    50  40  68 S6        30.13R
OXFORD         CLOUDY    48  36  61 S6        30.13S
$$

MEZ002-015-021-024-NHZ003-005-008-011-012-014-VTZ005-008-240300-
NORTHERN NEW ENGLAND

CITY           SKY/WX    TMP DP  RH WIND       PRES   REMARKS
PORTLAND ME    CLEAR     45  40  82 S9        30.05R
BANGOR ME      CLEAR     42  38  85 S10       30.02R
CONCORD NH     CLEAR     55  40  56 S9        30.03R
MANCHESTER NH  PTCLDY    56  39  53 S8        30.04R
NASHUA NH      CLOUDY    56  41  57 VRB5      30.06R
PORTSMOUTH NH  PTCLDY    48  40  73 S5        30.04R
JAFFREY NH     PTCLDY    49  40  71 S7        30.07R
KEENE NH       CLEAR     47  39  74 S5        30.06R
BURLINGTON VT  PTCLDY    56  37  49 S5        30.01R
MT. WASHINGTON PTCLDY    34  23  64 W53         N/A  WCI  17
$$

NYZ052-076-240300-
EASTERN NEW YORK

CITY           SKY/WX    TMP DP  RH WIND       PRES   REMARKS
ALBANY         MOCLDY    54  36  50 CALM      30.06R
NEW YORK CITY  CLOUDY    52  42  69 S12       30.12R
$$

ANZALL-240300-
MARINE OBSERVATIONS

STATION/POSITION TIME  TEMP    WIND        PRES    VSBY  WAVE
                       AIR SEA DIR/SP/G                  HT/PER
                 (UTC) (F)     (DEG/KT/KT) (MB)    (MI)  (FT/S)
BOSTON BUOY      0150   49 45  190/ 14/ 14 1017.9R         4/10
BUZZARDS BAY     0100   46     210/ 12/ 13 1020.8R
NANTUCKET SOUND  0150      49              1020.5R         2/ 5
MASS BAY-STELLWA 0104   48 45  190/ 14/ 14 1017.6R         6/13
ISLE OF SHOALS   0200   49     190/ 21/ 21 1017.4R
S OF BLOCK IS    0155      47                N/A           2/11
$$

......................KEY.........................
  SKY/WX - SKY CONDITION/PRESENT WEATHER
  TMP    - TEMPERATURE IN FAHRENHEIT
  DWPT   - DEWPOINT IN FAHRENHEIT
  RH     - RELATIVE HUMIDITY IN PERCENT
  WIND   - DIRECTION AND SPEED IN MPH
  PRES   - MEAN SEA LEVEL PRESSURE IN INCHES OF HG
  WCI    - WIND CHILL INDEX
  VSB    - VISIBILITY IN MILES
  HX     - HEAT INDEX
  TC     - TEMPERATURE IN CELSIUS
  VRB    - VARIABLE WIND DIRECTION
  N/A    - NOT AVAILABLE




USA.gov is the U.S. government's official web portal to all federal, state and local government web resources and services.